Year,Month,Day,Hour,Minute,Value (Times are PST for temperature in C)
2017,03,06,07,55,0.20
2017,03,06,07,56,0.20
2017,03,06,07,57,0.20
2017,03,06,07,58,0.20
2017,03,06,07,59,0.20
2017,03,06,08,00,0.20
2017,03,06,08,01,0.20
2017,03,06,08,02,0.20
2017,03,06,08,03,0.20
2017,03,06,08,04,0.20
2017,03,06,08,05,0.20
2017,03,06,08,06,0.20
2017,03,06,08,07,0.20
2017,03,06,08,08,0.20
2017,03,06,08,09,0.20
2017,03,06,08,10,0.20
2017,03,06,08,11,0.20
2017,03,06,08,12,0.20
2017,03,06,08,13,0.20
2017,03,06,08,14,0.20
2017,03,06,08,15,0.20
2017,03,06,08,16,0.20
2017,03,06,08,17,0.20
2017,03,06,08,18,0.20
2017,03,06,08,19,0.20
2017,03,06,08,20,0.20
2017,03,06,08,21,0.30
2017,03,06,08,22,0.20
2017,03,06,08,23,0.30
2017,03,06,08,24,0.30
2017,03,06,08,25,0.30
2017,03,06,08,26,0.30
2017,03,06,08,27,0.30
2017,03,06,08,28,0.30
2017,03,06,08,29,0.30
2017,03,06,08,30,0.30
2017,03,06,08,31,0.30
2017,03,06,08,32,0.30
2017,03,06,08,33,0.30
2017,03,06,08,34,0.30
2017,03,06,08,35,0.30
2017,03,06,08,36,0.30
2017,03,06,08,37,0.30
2017,03,06,08,38,0.40
2017,03,06,08,39,0.40
2017,03,06,08,40,0.40
2017,03,06,08,41,0.40
2017,03,06,08,42,0.40
2017,03,06,08,43,0.50
2017,03,06,08,44,0.50
2017,03,06,08,45,0.50
2017,03,06,08,46,0.50
2017,03,06,08,47,0.60
2017,03,06,08,48,0.60
2017,03,06,08,49,0.60
2017,03,06,08,50,0.60
2017,03,06,08,51,0.60
2017,03,06,08,52,0.70
2017,03,06,08,53,0.70
2017,03,06,08,54,0.70
2017,03,06,08,55,0.70
2017,03,06,08,56,0.70
2017,03,06,08,57,0.70
2017,03,06,08,58,0.80
2017,03,06,08,59,0.80
2017,03,06,09,00,0.80
2017,03,06,09,01,0.80
2017,03,06,09,02,0.80
2017,03,06,09,03,0.80
2017,03,06,09,04,0.80
2017,03,06,09,05,0.80
2017,03,06,09,06,0.80
2017,03,06,09,07,0.80
2017,03,06,09,08,0.80
2017,03,06,09,09,0.80
2017,03,06,09,10,0.80
2017,03,06,09,11,0.80
2017,03,06,09,12,0.80
2017,03,06,09,13,0.80
2017,03,06,09,14,0.80
2017,03,06,09,15,0.80
2017,03,06,09,16,0.90
2017,03,06,09,17,0.90
2017,03,06,09,18,0.90
2017,03,06,09,19,0.90
2017,03,06,09,20,0.90
2017,03,06,09,21,0.90
2017,03,06,09,22,0.90
2017,03,06,09,23,0.90
2017,03,06,09,24,0.90
2017,03,06,09,25,0.90
2017,03,06,09,26,0.90
2017,03,06,09,27,0.90
2017,03,06,09,28,1.00
2017,03,06,09,29,1.00
2017,03,06,09,30,1.00
2017,03,06,09,31,1.00
2017,03,06,09,32,1.00
2017,03,06,09,33,1.10
2017,03,06,09,34,1.10
2017,03,06,09,35,1.10
2017,03,06,09,36,1.10
2017,03,06,09,37,1.10
2017,03,06,09,38,1.10
2017,03,06,09,39,1.20
2017,03,06,09,40,1.20
2017,03,06,09,41,1.20
2017,03,06,09,42,1.20
2017,03,06,09,43,1.20
2017,03,06,09,44,1.20
2017,03,06,09,45,1.30
2017,03,06,09,46,1.30
2017,03,06,09,47,1.30
2017,03,06,09,48,1.30
2017,03,06,09,49,1.30
2017,03,06,09,50,1.30
2017,03,06,09,51,1.30
2017,03,06,09,52,1.30
2017,03,06,09,53,1.30
2017,03,06,09,54,1.30
2017,03,06,09,55,1.30
2017,03,06,09,56,1.30
2017,03,06,09,57,1.30
2017,03,06,09,58,1.30
2017,03,06,09,59,1.30
2017,03,06,10,00,1.40
2017,03,06,10,01,1.40
2017,03,06,10,02,1.40
2017,03,06,10,03,1.50
2017,03,06,10,04,1.50
2017,03,06,10,05,1.50
2017,03,06,10,06,1.50
2017,03,06,10,07,1.60
2017,03,06,10,08,1.60
2017,03,06,10,09,1.60
2017,03,06,10,10,1.70
2017,03,06,10,11,1.70
2017,03,06,10,12,1.80
2017,03,06,10,13,1.80
2017,03,06,10,14,1.90
2017,03,06,10,15,2.00
2017,03,06,10,16,2.00
2017,03,06,10,17,2.10
2017,03,06,10,18,2.10
2017,03,06,10,19,2.20
2017,03,06,10,20,2.30
2017,03,06,10,21,2.30
2017,03,06,10,22,2.40
2017,03,06,10,23,2.50
2017,03,06,10,24,2.50
2017,03,06,10,25,2.60
2017,03,06,10,26,2.60
2017,03,06,10,27,2.60
2017,03,06,10,28,2.70
2017,03,06,10,29,2.60
2017,03,06,10,30,2.60
2017,03,06,10,31,2.60
2017,03,06,10,32,2.70
2017,03,06,10,33,2.70
2017,03,06,10,34,2.70
2017,03,06,10,35,2.70
2017,03,06,10,36,2.70
2017,03,06,10,37,2.80
2017,03,06,10,38,2.80
2017,03,06,10,39,2.80
2017,03,06,10,40,2.90
2017,03,06,10,41,2.90
2017,03,06,10,42,3.00
2017,03,06,10,43,3.00
2017,03,06,10,44,3.00
2017,03,06,10,45,3.00
2017,03,06,10,46,3.00
2017,03,06,10,47,2.90
2017,03,06,10,48,2.90
2017,03,06,10,49,2.90
2017,03,06,10,50,2.90
2017,03,06,10,51,2.90
2017,03,06,10,52,2.90
2017,03,06,10,53,2.90
2017,03,06,10,54,2.90
2017,03,06,10,55,2.90
2017,03,06,10,56,2.90
2017,03,06,10,57,3.00
2017,03,06,10,58,3.00
2017,03,06,10,59,3.10
2017,03,06,11,00,3.10
2017,03,06,11,01,3.20
2017,03,06,11,02,3.20
2017,03,06,11,03,3.30
2017,03,06,11,04,3.30
2017,03,06,11,05,3.30
2017,03,06,11,06,3.30
2017,03,06,11,07,3.30
2017,03,06,11,08,3.30
2017,03,06,11,09,3.30
2017,03,06,11,10,3.30
2017,03,06,11,11,3.20
2017,03,06,11,12,3.20
2017,03,06,11,13,3.20
2017,03,06,11,14,3.20
2017,03,06,11,15,3.20
2017,03,06,11,16,3.20
2017,03,06,11,17,3.20
2017,03,06,11,18,3.20
2017,03,06,11,19,3.20
2017,03,06,11,20,3.20
2017,03,06,11,21,3.20
2017,03,06,11,22,3.30
2017,03,06,11,23,3.30
2017,03,06,11,24,3.30
2017,03,06,11,25,3.40
2017,03,06,11,26,3.40
2017,03,06,11,27,3.50
2017,03,06,11,28,3.50
2017,03,06,11,29,3.60
2017,03,06,11,30,3.60
2017,03,06,11,31,3.60
2017,03,06,11,32,3.60
2017,03,06,11,33,3.60
2017,03,06,11,34,3.60
2017,03,06,11,35,3.60
2017,03,06,11,36,3.60
2017,03,06,11,37,3.60
2017,03,06,11,38,3.60
2017,03,06,11,39,3.60
2017,03,06,11,40,3.60
2017,03,06,11,41,3.60
2017,03,06,11,42,3.60
2017,03,06,11,43,3.60
2017,03,06,11,44,3.70
2017,03,06,11,45,3.70
2017,03,06,11,46,3.80
2017,03,06,11,47,3.80
2017,03,06,11,48,3.80
2017,03,06,11,49,3.90
2017,03,06,11,50,3.90
2017,03,06,11,51,3.90
2017,03,06,11,52,3.90
2017,03,06,11,53,4.00
2017,03,06,11,54,4.00
2017,03,06,11,55,4.10
2017,03,06,11,56,4.10
2017,03,06,11,57,4.10
2017,03,06,11,58,4.10
2017,03,06,11,59,4.10
2017,03,06,12,00,4.20
2017,03,06,12,01,4.20
2017,03,06,12,02,4.20
2017,03,06,12,03,4.30
2017,03,06,12,04,4.30
2017,03,06,12,05,4.30
2017,03,06,12,06,4.40
2017,03,06,12,07,4.40
2017,03,06,12,08,4.50
2017,03,06,12,09,4.50
2017,03,06,12,10,4.60
2017,03,06,12,11,4.60
2017,03,06,12,12,4.60
2017,03,06,12,13,4.60
2017,03,06,12,14,4.60
2017,03,06,12,15,4.50
2017,03,06,12,16,4.60
2017,03,06,12,17,4.60
2017,03,06,12,18,4.60
2017,03,06,12,19,4.60
2017,03,06,12,20,4.60
2017,03,06,12,21,4.60
2017,03,06,12,22,4.60
2017,03,06,12,23,4.60
2017,03,06,12,24,4.60
2017,03,06,12,25,4.60
2017,03,06,12,26,4.50
2017,03,06,12,27,4.50
2017,03,06,12,28,4.40
2017,03,06,12,29,4.50
2017,03,06,12,30,4.50
2017,03,06,12,31,4.60
2017,03,06,12,32,4.60
2017,03,06,12,33,4.60
2017,03,06,12,34,4.60
2017,03,06,12,35,4.60
2017,03,06,12,36,4.60
2017,03,06,12,37,4.70
2017,03,06,12,38,4.70
2017,03,06,12,39,4.70
2017,03,06,12,40,4.80
2017,03,06,12,41,4.80
2017,03,06,12,42,4.80
2017,03,06,12,43,4.80
2017,03,06,12,44,4.90
2017,03,06,12,45,4.90
2017,03,06,12,46,4.90
2017,03,06,12,47,5.00
2017,03,06,12,48,5.00
2017,03,06,12,49,4.90
2017,03,06,12,50,4.90
2017,03,06,12,51,4.80
2017,03,06,12,52,4.70
2017,03,06,12,53,4.70
2017,03,06,12,54,4.60
2017,03,06,12,55,4.60
2017,03,06,12,56,4.60
2017,03,06,12,57,4.60
2017,03,06,12,58,4.60
2017,03,06,12,59,4.60
2017,03,06,13,00,4.60
2017,03,06,13,01,4.60
2017,03,06,13,02,4.60
2017,03,06,13,03,4.70
2017,03,06,13,04,4.70
2017,03,06,13,05,4.70
2017,03,06,13,06,4.80
2017,03,06,13,07,4.80
2017,03,06,13,08,4.80
2017,03,06,13,09,4.80
2017,03,06,13,10,4.80
2017,03,06,13,11,4.80
2017,03,06,13,12,4.80
2017,03,06,13,13,4.80
2017,03,06,13,14,4.80
2017,03,06,13,15,4.90
2017,03,06,13,16,4.90
2017,03,06,13,17,5.00
2017,03,06,13,18,5.00
2017,03,06,13,19,5.00
2017,03,06,13,20,5.00
2017,03,06,13,21,5.10
2017,03,06,13,22,5.10
2017,03,06,13,23,5.10
2017,03,06,13,24,5.10
2017,03,06,13,25,5.10
2017,03,06,13,26,5.10
2017,03,06,13,27,5.10
2017,03,06,13,28,5.10
2017,03,06,13,29,5.20
2017,03,06,13,30,5.20
2017,03,06,13,31,5.20
2017,03,06,13,32,5.30
2017,03,06,13,33,5.40
2017,03,06,13,34,5.50
2017,03,06,13,35,5.50
2017,03,06,13,36,5.50
2017,03,06,13,37,5.40
2017,03,06,13,38,5.20
2017,03,06,13,39,5.10
2017,03,06,13,40,5.00
2017,03,06,13,41,4.90
2017,03,06,13,42,4.90
2017,03,06,13,43,4.80
2017,03,06,13,44,4.80
2017,03,06,13,45,4.80
2017,03,06,13,46,4.90
2017,03,06,13,47,4.90
2017,03,06,13,48,5.00
2017,03,06,13,49,5.10
2017,03,06,13,50,5.10
2017,03,06,13,51,5.20
2017,03,06,13,52,5.20
2017,03,06,13,53,5.10
2017,03,06,13,54,5.10
2017,03,06,13,55,5.10
2017,03,06,13,56,5.20
2017,03,06,13,57,5.20
2017,03,06,13,58,5.20
2017,03,06,13,59,5.20
2017,03,06,14,00,5.20
2017,03,06,14,01,5.20
2017,03,06,14,02,5.20
2017,03,06,14,03,5.10
2017,03,06,14,04,5.20
2017,03,06,14,05,5.20
2017,03,06,14,06,5.30
2017,03,06,14,07,5.30
2017,03,06,14,08,5.40
2017,03,06,14,09,5.40
2017,03,06,14,10,5.50
2017,03,06,14,11,5.60
2017,03,06,14,12,5.60
2017,03,06,14,13,5.60
2017,03,06,14,14,5.50
2017,03,06,14,15,5.50
2017,03,06,14,16,5.40
2017,03,06,14,17,5.40
2017,03,06,14,18,5.30
2017,03,06,14,19,5.30
2017,03,06,14,20,5.20
2017,03,06,14,21,5.20
2017,03,06,14,22,5.20
2017,03,06,14,23,5.20
2017,03,06,14,24,5.20
2017,03,06,14,25,5.20
2017,03,06,14,26,5.20
2017,03,06,14,27,5.20
2017,03,06,14,28,5.30
2017,03,06,14,29,5.30
2017,03,06,14,30,5.30
2017,03,06,14,31,5.30
2017,03,06,14,32,5.30
2017,03,06,14,33,5.30
2017,03,06,14,34,5.40
2017,03,06,14,35,5.40
2017,03,06,14,36,5.40
2017,03,06,14,37,5.30
2017,03,06,14,38,5.30
2017,03,06,14,39,5.30
2017,03,06,14,40,5.30
2017,03,06,14,41,5.20
2017,03,06,14,42,5.20
2017,03,06,14,43,5.20
2017,03,06,14,44,5.10
2017,03,06,14,45,5.10
2017,03,06,14,46,5.20
2017,03,06,14,47,5.20
2017,03,06,14,48,5.20
2017,03,06,14,49,5.20
2017,03,06,14,50,5.20
2017,03,06,14,51,5.20
2017,03,06,14,52,5.20
2017,03,06,14,53,5.20
2017,03,06,14,54,5.10
2017,03,06,14,55,5.00
2017,03,06,14,56,5.00
2017,03,06,14,57,5.00
2017,03,06,14,58,5.00
2017,03,06,14,59,5.00
2017,03,06,15,00,5.10
2017,03,06,15,01,5.10
2017,03,06,15,02,5.10
2017,03,06,15,03,5.10
2017,03,06,15,04,5.20
2017,03,06,15,05,5.20
2017,03,06,15,06,5.20
2017,03,06,15,07,5.20
2017,03,06,15,08,5.20
2017,03,06,15,09,5.20
2017,03,06,15,10,5.30
2017,03,06,15,11,5.30
2017,03,06,15,12,5.20
2017,03,06,15,13,5.20
2017,03,06,15,14,5.20
2017,03,06,15,15,5.20
2017,03,06,15,16,5.20
2017,03,06,15,17,5.20
2017,03,06,15,18,5.30
2017,03,06,15,19,5.40
2017,03,06,15,20,5.40
2017,03,06,15,21,5.40
2017,03,06,15,22,5.50
2017,03,06,15,23,5.50
2017,03,06,15,24,5.50
2017,03,06,15,25,5.50
2017,03,06,15,26,5.50
2017,03,06,15,27,5.50
2017,03,06,15,28,5.50
2017,03,06,15,29,5.50
2017,03,06,15,30,5.50
2017,03,06,15,31,5.50
2017,03,06,15,32,5.40
2017,03,06,15,33,5.50
2017,03,06,15,34,5.50
2017,03,06,15,35,5.50
2017,03,06,15,36,5.50
2017,03,06,15,37,5.50
2017,03,06,15,38,5.50
2017,03,06,15,39,5.50
2017,03,06,15,40,5.50
2017,03,06,15,41,5.50
2017,03,06,15,42,5.50
2017,03,06,15,43,5.50
2017,03,06,15,44,5.50
2017,03,06,15,45,5.50
2017,03,06,15,46,5.40
2017,03,06,15,47,5.40
2017,03,06,15,48,5.40
2017,03,06,15,49,5.40
2017,03,06,15,50,5.40
2017,03,06,15,51,5.30
2017,03,06,15,52,5.30
2017,03,06,15,53,5.40
2017,03,06,15,54,5.40
2017,03,06,15,55,5.40
2017,03,06,15,56,5.40
2017,03,06,15,57,5.40
2017,03,06,15,58,5.40
2017,03,06,15,59,5.40
2017,03,06,16,00,5.40
2017,03,06,16,01,5.40
2017,03,06,16,02,5.40
2017,03,06,16,03,5.50
2017,03,06,16,04,5.50
2017,03,06,16,05,5.50
2017,03,06,16,06,5.50
2017,03,06,16,07,5.40
2017,03,06,16,08,5.40
2017,03,06,16,09,5.40
2017,03,06,16,10,5.40
2017,03,06,16,11,5.40
2017,03,06,16,12,5.40
2017,03,06,16,13,5.40
2017,03,06,16,14,5.40
2017,03,06,16,15,5.40
2017,03,06,16,16,5.40
2017,03,06,16,17,5.40
2017,03,06,16,18,5.40
2017,03,06,16,19,5.40
2017,03,06,16,20,5.40
2017,03,06,16,21,5.50
2017,03,06,16,22,5.50
2017,03,06,16,23,5.50
2017,03,06,16,24,5.50
2017,03,06,16,25,5.40
2017,03,06,16,26,5.30
2017,03,06,16,27,5.30
2017,03,06,16,28,5.30
2017,03,06,16,29,5.20
2017,03,06,16,30,5.20
2017,03,06,16,31,5.10
2017,03,06,16,32,5.10
2017,03,06,16,33,5.10
2017,03,06,16,34,5.10
2017,03,06,16,35,5.10
2017,03,06,16,36,5.10
2017,03,06,16,37,5.00
2017,03,06,16,38,5.00
2017,03,06,16,39,5.00
2017,03,06,16,40,4.90
2017,03,06,16,41,4.90
2017,03,06,16,42,4.90
2017,03,06,16,43,4.80
2017,03,06,16,44,4.80
2017,03,06,16,45,4.80
2017,03,06,16,46,4.70
2017,03,06,16,47,4.70
2017,03,06,16,48,4.70
2017,03,06,16,49,4.70
2017,03,06,16,50,4.70
2017,03,06,16,51,4.70
2017,03,06,16,52,4.60
2017,03,06,16,53,4.60
2017,03,06,16,54,4.60
2017,03,06,16,55,4.60
2017,03,06,16,56,4.60
2017,03,06,16,57,4.60
2017,03,06,16,58,4.50
2017,03,06,16,59,4.50
2017,03,06,17,00,4.50
2017,03,06,17,01,4.40
2017,03,06,17,02,4.40
2017,03,06,17,03,4.40
2017,03,06,17,04,4.40
2017,03,06,17,05,4.40
2017,03,06,17,06,4.40
2017,03,06,17,07,4.40
2017,03,06,17,08,4.40
2017,03,06,17,09,4.40
2017,03,06,17,10,4.40
2017,03,06,17,11,4.40
2017,03,06,17,12,4.40
2017,03,06,17,13,4.40
2017,03,06,17,14,4.30
2017,03,06,17,15,4.30
2017,03,06,17,16,4.30
2017,03,06,17,17,4.30
2017,03,06,17,18,4.30
2017,03,06,17,19,4.30
2017,03,06,17,20,4.30
2017,03,06,17,21,4.30
2017,03,06,17,22,4.30
2017,03,06,17,23,4.30
2017,03,06,17,24,4.30
2017,03,06,17,25,4.30
2017,03,06,17,26,4.20
2017,03,06,17,27,4.10
2017,03,06,17,28,4.00
2017,03,06,17,29,3.80
2017,03,06,17,30,3.60
2017,03,06,17,31,3.40
2017,03,06,17,32,3.30
2017,03,06,17,33,3.10
2017,03,06,17,34,2.90
2017,03,06,17,35,2.70
2017,03,06,17,36,2.50
2017,03,06,17,37,2.30
2017,03,06,17,38,2.20
2017,03,06,17,39,2.00
2017,03,06,17,40,1.90
2017,03,06,17,41,1.90
2017,03,06,17,42,1.80
2017,03,06,17,43,1.80
2017,03,06,17,44,1.80
2017,03,06,17,45,1.80
2017,03,06,17,46,1.70
2017,03,06,17,47,1.70
2017,03,06,17,48,1.70
2017,03,06,17,49,1.70
2017,03,06,17,50,1.70
2017,03,06,17,51,1.70
2017,03,06,17,52,1.70
2017,03,06,17,53,1.60
2017,03,06,17,54,1.60
2017,03,06,17,55,1.60
2017,03,06,17,56,1.60
2017,03,06,17,57,1.60
2017,03,06,17,58,1.60
2017,03,06,17,59,1.60
2017,03,06,18,00,1.60
2017,03,06,18,01,1.50
2017,03,06,18,02,1.50
2017,03,06,18,03,1.50
2017,03,06,18,04,1.40
2017,03,06,18,05,1.40
2017,03,06,18,06,1.40
2017,03,06,18,07,1.40
2017,03,06,18,08,1.30
2017,03,06,18,09,1.30
2017,03,06,18,10,1.30
2017,03,06,18,11,1.30
2017,03,06,18,12,1.30
2017,03,06,18,13,1.30
2017,03,06,18,14,1.20
2017,03,06,18,15,1.20
2017,03,06,18,16,1.20
2017,03,06,18,17,1.20
2017,03,06,18,18,1.20
2017,03,06,18,19,1.20
2017,03,06,18,20,1.20
2017,03,06,18,21,1.20
2017,03,06,18,22,1.20
2017,03,06,18,23,1.20
2017,03,06,18,24,1.20
2017,03,06,18,25,1.20
2017,03,06,18,26,1.20
2017,03,06,18,27,1.20
2017,03,06,18,28,1.20
2017,03,06,18,29,1.20
2017,03,06,18,30,1.20
2017,03,06,18,31,1.20
2017,03,06,18,32,1.20
2017,03,06,18,33,1.20
2017,03,06,18,34,1.20
2017,03,06,18,35,1.20
2017,03,06,18,36,1.20
2017,03,06,18,37,1.20
2017,03,06,18,38,1.20
2017,03,06,18,39,1.10
2017,03,06,18,40,1.10
2017,03,06,18,41,1.10
2017,03,06,18,42,1.10
2017,03,06,18,43,1.10
2017,03,06,18,44,1.10
2017,03,06,18,45,1.10
2017,03,06,18,46,1.10
2017,03,06,18,47,1.10
2017,03,06,18,48,1.10
2017,03,06,18,49,1.10
2017,03,06,18,50,1.10
2017,03,06,18,51,1.10
2017,03,06,18,52,1.10
2017,03,06,18,53,1.10
2017,03,06,18,54,1.10
2017,03,06,18,55,1.10
2017,03,06,18,56,1.10
2017,03,06,18,57,1.10
2017,03,06,18,58,1.10
2017,03,06,18,59,1.10
2017,03,06,19,00,1.10
2017,03,06,19,01,1.10
2017,03,06,19,02,1.20
2017,03,06,19,03,1.20
2017,03,06,19,04,1.20
2017,03,06,19,05,1.20
2017,03,06,19,06,1.20
2017,03,06,19,07,1.20
2017,03,06,19,08,1.20
2017,03,06,19,09,1.20
2017,03,06,19,10,1.20
2017,03,06,19,11,1.20
2017,03,06,19,12,1.20
2017,03,06,19,13,1.20
2017,03,06,19,14,1.20
2017,03,06,19,15,1.20
2017,03,06,19,16,1.20
2017,03,06,19,17,1.20
2017,03,06,19,18,1.20
2017,03,06,19,19,1.20
2017,03,06,19,20,1.20
2017,03,06,19,21,1.20
2017,03,06,19,22,1.20
2017,03,06,19,23,1.20
2017,03,06,19,24,1.20
2017,03,06,19,25,1.20
2017,03,06,19,26,1.30
2017,03,06,19,27,1.30
2017,03,06,19,28,1.30
2017,03,06,19,29,1.30
2017,03,06,19,30,1.30
2017,03,06,19,31,1.30
2017,03,06,19,32,1.30
2017,03,06,19,33,1.30
2017,03,06,19,34,1.30
2017,03,06,19,35,1.30
2017,03,06,19,36,1.30
2017,03,06,19,37,1.30
2017,03,06,19,38,1.30
2017,03,06,19,39,1.30
2017,03,06,19,40,1.30
2017,03,06,19,41,1.30
2017,03,06,19,42,1.30
2017,03,06,19,43,1.30
2017,03,06,19,44,1.30
2017,03,06,19,45,1.30
2017,03,06,19,46,1.30
2017,03,06,19,47,1.30
2017,03,06,19,48,1.30
2017,03,06,19,49,1.30
2017,03,06,19,50,1.30
2017,03,06,19,51,1.30
2017,03,06,19,52,1.30
2017,03,06,19,53,1.40
2017,03,06,19,54,1.40
2017,03,06,19,55,1.40
2017,03,06,19,56,1.40
2017,03,06,19,57,1.40
2017,03,06,19,58,1.40
2017,03,06,19,59,1.30
2017,03,06,20,00,1.30
2017,03,06,20,01,1.30
2017,03,06,20,02,1.30
2017,03,06,20,03,1.30
2017,03,06,20,04,1.30
2017,03,06,20,05,1.30
2017,03,06,20,06,1.30
2017,03,06,20,07,1.30
2017,03,06,20,08,1.30
2017,03,06,20,09,1.30
2017,03,06,20,10,1.30
2017,03,06,20,11,1.30
2017,03,06,20,12,1.30
2017,03,06,20,13,1.20
2017,03,06,20,14,1.20
2017,03,06,20,15,1.20
2017,03,06,20,16,1.20
2017,03,06,20,17,1.20
2017,03,06,20,18,1.20
2017,03,06,20,19,1.20
2017,03,06,20,20,1.20
2017,03,06,20,21,1.20
2017,03,06,20,22,1.20
2017,03,06,20,23,1.20
2017,03,06,20,24,1.20
2017,03,06,20,25,1.20
2017,03,06,20,26,1.30
2017,03,06,20,27,1.20
2017,03,06,20,28,1.20
2017,03,06,20,29,1.20
2017,03,06,20,30,1.20
2017,03,06,20,31,1.20
2017,03,06,20,32,1.20
2017,03,06,20,33,1.20
2017,03,06,20,34,1.20
2017,03,06,20,35,1.30
2017,03,06,20,36,1.20
2017,03,06,20,37,1.30
2017,03,06,20,38,1.20
2017,03,06,20,39,1.20
2017,03,06,20,40,1.20
2017,03,06,20,41,1.30
2017,03,06,20,42,1.30
2017,03,06,20,43,1.30
2017,03,06,20,44,1.30
2017,03,06,20,45,1.30
2017,03,06,20,46,1.30
2017,03,06,20,47,1.30
2017,03,06,20,48,1.30
2017,03,06,20,49,1.30
2017,03,06,20,50,1.30
2017,03,06,20,51,1.30
2017,03,06,20,52,1.30
2017,03,06,20,53,1.30
2017,03,06,20,54,1.30
2017,03,06,20,55,1.30
2017,03,06,20,56,1.20
2017,03,06,20,57,1.20
2017,03,06,20,58,1.20
2017,03,06,20,59,1.20
2017,03,06,21,00,1.20
2017,03,06,21,01,1.20
2017,03,06,21,02,1.30
2017,03,06,21,03,1.30
2017,03,06,21,04,1.30
2017,03,06,21,05,1.30
2017,03,06,21,06,1.30
2017,03,06,21,07,1.30
2017,03,06,21,08,1.30
2017,03,06,21,09,1.30
2017,03,06,21,10,1.30
2017,03,06,21,11,1.30
2017,03,06,21,12,1.40
2017,03,06,21,13,1.40
2017,03,06,21,14,1.40
2017,03,06,21,15,1.40
2017,03,06,21,16,1.50
2017,03,06,21,17,1.50
2017,03,06,21,18,1.60
2017,03,06,21,19,1.60
2017,03,06,21,20,1.70
2017,03,06,21,21,1.70
2017,03,06,21,22,1.70
2017,03,06,21,23,1.80
2017,03,06,21,24,1.80
2017,03,06,21,25,1.80
2017,03,06,21,26,1.90
2017,03,06,21,27,1.90
2017,03,06,21,28,2.00
2017,03,06,21,29,2.00
2017,03,06,21,30,2.10
2017,03,06,21,31,2.10
2017,03,06,21,32,2.10
2017,03,06,21,33,2.10
2017,03,06,21,34,2.10
2017,03,06,21,35,2.10
2017,03,06,21,36,2.00
2017,03,06,21,37,2.00
2017,03,06,21,38,2.00
2017,03,06,21,39,1.90
2017,03,06,21,40,2.00
2017,03,06,21,41,2.00
2017,03,06,21,42,2.00
2017,03,06,21,43,2.00
2017,03,06,21,44,2.00
2017,03,06,21,45,2.00
2017,03,06,21,46,2.00
2017,03,06,21,47,2.00
2017,03,06,21,48,2.00
2017,03,06,21,49,2.00
2017,03,06,21,50,2.00
2017,03,06,21,51,2.00
2017,03,06,21,52,2.00
2017,03,06,21,53,2.00
2017,03,06,21,54,2.00
2017,03,06,21,55,1.90
2017,03,06,21,56,1.90
2017,03,06,21,57,1.90
2017,03,06,21,58,1.90
2017,03,06,21,59,1.90
2017,03,06,22,00,1.90
2017,03,06,22,01,1.90
2017,03,06,22,02,1.90
2017,03,06,22,03,1.90
2017,03,06,22,04,1.90
2017,03,06,22,05,1.90
2017,03,06,22,06,1.90
2017,03,06,22,07,1.90
2017,03,06,22,08,2.00
2017,03,06,22,09,2.10
2017,03,06,22,10,2.30
2017,03,06,22,11,2.40
2017,03,06,22,12,2.50
2017,03,06,22,13,2.60
2017,03,06,22,14,2.70
2017,03,06,22,15,2.80
2017,03,06,22,16,2.80
2017,03,06,22,17,2.90
2017,03,06,22,18,3.00
2017,03,06,22,19,3.00
2017,03,06,22,20,3.10
2017,03,06,22,21,3.10
2017,03,06,22,22,3.10
2017,03,06,22,23,3.10
2017,03,06,22,24,3.20
2017,03,06,22,25,3.10
2017,03,06,22,26,3.20
2017,03,06,22,27,3.20
2017,03,06,22,28,3.10
2017,03,06,22,29,3.10
2017,03,06,22,30,3.10
2017,03,06,22,31,3.10
2017,03,06,22,32,3.10
2017,03,06,22,33,3.10
2017,03,06,22,34,3.10
2017,03,06,22,35,3.10
2017,03,06,22,36,3.00
2017,03,06,22,37,2.80
2017,03,06,22,38,2.80
2017,03,06,22,39,2.70
2017,03,06,22,40,2.60
2017,03,06,22,41,2.60
2017,03,06,22,42,2.50
2017,03,06,22,43,2.50
2017,03,06,22,44,2.40
2017,03,06,22,45,2.40
2017,03,06,22,46,2.40
2017,03,06,22,47,2.30
2017,03,06,22,48,2.30
2017,03,06,22,49,2.30
2017,03,06,22,50,2.30
2017,03,06,22,51,2.20
2017,03,06,22,52,2.20
2017,03,06,22,53,2.20
2017,03,06,22,54,2.20
2017,03,06,22,55,2.20
2017,03,06,22,56,2.10
2017,03,06,22,57,2.10
2017,03,06,22,58,2.10
2017,03,06,22,59,2.10
2017,03,06,23,00,2.00
2017,03,06,23,01,2.00
2017,03,06,23,02,2.00
2017,03,06,23,03,1.90
2017,03,06,23,04,1.90
2017,03,06,23,05,1.90
2017,03,06,23,06,1.90
2017,03,06,23,07,1.90
2017,03,06,23,08,1.90
2017,03,06,23,09,1.90
2017,03,06,23,10,1.80
2017,03,06,23,11,1.80
2017,03,06,23,12,1.80
2017,03,06,23,13,1.80
2017,03,06,23,14,1.80
2017,03,06,23,15,1.80
2017,03,06,23,16,1.70
2017,03,06,23,17,1.70
2017,03,06,23,18,1.70
2017,03,06,23,19,1.70
2017,03,06,23,20,1.70
2017,03,06,23,21,1.60
2017,03,06,23,22,1.60
2017,03,06,23,23,1.60
2017,03,06,23,24,1.60
2017,03,06,23,25,1.60
2017,03,06,23,26,1.60
2017,03,06,23,27,1.60
2017,03,06,23,28,1.60
2017,03,06,23,29,1.60
2017,03,06,23,30,1.60
2017,03,06,23,31,1.60
2017,03,06,23,32,1.60
2017,03,06,23,33,1.50
2017,03,06,23,35,1.40
2017,03,06,23,36,1.40
2017,03,06,23,37,1.40
2017,03,06,23,40,1.40
2017,03,06,23,41,1.40
2017,03,06,23,42,1.40
2017,03,06,23,43,1.40
2017,03,06,23,44,1.40
2017,03,06,23,45,1.40
2017,03,06,23,46,1.40
2017,03,06,23,47,1.40
2017,03,06,23,48,1.40
2017,03,06,23,49,1.40
2017,03,06,23,50,1.40
2017,03,06,23,51,1.40
2017,03,06,23,52,1.40
2017,03,06,23,53,1.40
2017,03,06,23,54,1.40
2017,03,06,23,55,1.40
2017,03,06,23,56,1.40
2017,03,06,23,57,1.40
2017,03,06,23,58,1.40
2017,03,06,23,59,1.40
